Weather History for Imperial, CA

Change the Weather History Date:

Friday, March 22, 2013

  Actual Average Record
Temperature  
Mean Temperature 74 °F -  
Max Temperature 87 °F 81 °F 95 °F (2004)
Min Temperature 60 °F 52 °F 40 °F (1955)
Cooling Degree Days 8    
Growing Degree Days 24 (Base 50)    
Moisture  
Dew Point 35 °F    
Average Humidity 30    
Maximum Humidity 50    
Minimum Humidity 7    
Precipitation  
Precipitation 0.00 in - - ()
Sea Level Pressure  
Sea Level Pressure 29.70 in    
Wind  
Wind Speed 10 mph (West)    
Max Wind Speed 15 mph    
Max Gust Speed -    
Visibility 10 miles    
Events      
Averages and records for this station are not official NWS values.
T = Trace of Precipitation, MM = Missing Value Source: NWS Daily Summary

Daily Weather History Graph

Daily Weather History Graph

Search for Another Location

Airport:

Trip Planner

Search our weather history database for the weather conditions in past years. The results will help you decide how hot, cold, wet, or windy it might be!

Date:

Astronomy

Mar. 22, 2013 Rise Set
Actual Time 6:42 AM PDT 6:55 PM PDT
Civil Twilight 6:18 AM PDT 7:20 PM PDT
Nautical Twilight 5:49 AM PDT 7:49 PM PDT
Astronomical Twilight 5:20 AM PDT 8:18 PM PDT
Moon 2:39 PM PDT (3/22) 3:32 AM PDT (3/22)
Length of Visible Light 13h 01m
Length of Day
12h 12m
Waxing Gibbous, 78% of the Moon is Illuminated
Mar 22
Waxing Gibbous
Mar 27
Full
Apr 2
Last Quarter
Apr 10
New
Apr 18
First Quarter

Hourly Weather History & Observations

Time (PDT) Temp. Dew Point Humidity Pressure Visibility Wind Dir Wind Speed Gust Speed Precip Events Conditions
12:53 AM 66.0 °F 42.1 °F 42% 29.66 in 10.0 mi West 13.8 mph - N/A   Clear
1:53 AM 64.9 °F 41.0 °F 42% 29.66 in 10.0 mi West 11.5 mph - N/A   Clear
2:53 AM 64.9 °F 41.0 °F 42% 29.64 in 10.0 mi WSW 15.0 mph - N/A   Clear
3:53 AM 64.0 °F 39.9 °F 41% 29.64 in 10.0 mi WNW 12.7 mph - N/A   Clear
4:53 AM 60.1 °F 41.0 °F 49% 29.65 in 10.0 mi WSW 8.1 mph - N/A   Clear
5:53 AM 62.1 °F 39.0 °F 43% 29.66 in 10.0 mi WNW 10.4 mph - N/A   Clear
6:53 AM 63.0 °F 39.9 °F 43% 29.69 in 10.0 mi WNW 10.4 mph - N/A   Clear
7:53 AM 62.1 °F 43.0 °F 50% 29.72 in 10.0 mi WNW 8.1 mph - N/A   Clear
8:53 AM 70.0 °F 45.0 °F 41% 29.74 in 10.0 mi WNW 5.8 mph - N/A   Clear
9:53 AM 73.0 °F 42.1 °F 33% 29.75 in 10.0 mi NW 9.2 mph - N/A   Clear
10:53 AM 75.9 °F 39.0 °F 26% 29.76 in 10.0 mi NW 6.9 mph - N/A   Clear
11:53 AM 79.0 °F 33.1 °F 19% 29.75 in 10.0 mi NW 8.1 mph - N/A   Clear
12:53 PM 82.0 °F 27.0 °F 13% 29.74 in 10.0 mi NNW 6.9 mph - N/A   Clear
1:53 PM 82.9 °F 27.0 °F 13% 29.73 in 10.0 mi Variable 5.8 mph - N/A   Clear
2:53 PM 84.9 °F 25.0 °F 11% 29.71 in 10.0 mi WNW 8.1 mph - N/A   Clear
3:53 PM 84.9 °F 19.9 °F 9% 29.69 in 10.0 mi West 5.8 mph - N/A   Clear
4:53 PM 87.1 °F 16.0 °F 7% 29.68 in 10.0 mi North 5.8 mph - N/A   Clear
5:53 PM 84.0 °F 19.9 °F 9% 29.68 in 10.0 mi SW 8.1 mph - N/A   Clear
6:53 PM 81.0 °F 27.0 °F 14% 29.68 in 10.0 mi SSW 5.8 mph - N/A   Clear
7:53 PM 77.0 °F 25.0 °F 15% 29.70 in 10.0 mi SW 8.1 mph - N/A   Clear
8:53 PM 72.0 °F 42.1 °F 34% 29.72 in 10.0 mi WSW 12.7 mph - N/A   Clear
9:53 PM 70.0 °F 44.1 °F 39% 29.74 in 10.0 mi WSW 10.4 mph - N/A   Clear
10:53 PM 68.0 °F 45.0 °F 43% 29.76 in 10.0 mi West 11.5 mph - N/A   Clear
11:53 PM 66.9 °F 43.0 °F 42% 29.76 in 10.0 mi WSW 12.7 mph - N/A   Clear